Location: Fluertsh�userhof
(48.7537°N, 10.3850°E)
Time: 05:29:49
(UTC+00:00)

SJ-6B - Pass Details

Date: 18 September 2020
Orbit: 511 x 580 km, 97.6° (Epoch: 29 October)

Event Time Altitude Azimuth Distance (km) Brightness Sun altitude
Exits shadow 19:22:14 20° 189° (S) 1,218 4.4 -19.6°
Maximum altitude 19:24:35 52° 260° (W) 645 3.4 -19.9°
Drops below altitude 10° 19:28:16 10° 338° (NNW) 1,755 6.1 -20.4°
Sets 19:30:26 0° 343° (NNW) 2,654 7.0 -20.8°
